Temperature
17 17 18 18 15 12 14 14 15 16 17 20 21 21 20 20 20 21 21 21 22 21 20 18 18 17 17 16 16 16 16 16 16 15 15 15 16 15 15 15 14 14 14 14 14 14 14 14 14
17 17 17 17 13 13 13 14 15 16 19 20 21 21 21 21 21 21 21 21 21 21 20 19 18 17 17 17 17 16 16 16 16 16 15 15 16 16 15 14 14 14 14 14 14 14 14 14 14
17 17 17 13 12 12 15 15 14 17 19 19 20 21 21 21 22 22 22 21 21 21 20 20 19 18 17 17 17 17 16 16 16 15 15 15 16 16 15 15 14 14 14 14 14 14 14 14 14
16 16 15 12 13 13 14 16 15 16 19 20 20 20 21 21 22 22 22 21 20 20 20 20 19 18 18 18 18 18 17 17 16 16 15 16 16 16 16 15 15 14 14 14 14 14 14 14 14
15 15 12 12 12 13 13 15 16 16 17 19 19 19 20 21 21 21 21 21 20 20 19 19 19 19 18 18 18 18 18 17 16 16 16 16 16 16 16 15 15 15 14 14 14 14 14 14 14
15 12 11 11 13 13 13 16 17 17 17 18 19 19 21 22 21 21 21 20 19 19 19 18 18 19 18 18 19 18 18 17 17 16 16 16 16 16 16 15 15 15 14 14 14 14 14 14 14
13 10 11 12 13 13 14 16 17 17 17 19 20 19 21 21 21 21 21 20 19 18 18 18 19 19 18 18 18 18 18 17 17 16 16 16 16 16 16 15 15 15 14 14 14 13 13 13 13
14 10 11 11 12 14 15 17 18 18 18 19 20 19 20 22 21 20 20 19 18 18 18 18 18 19 19 19 18 18 18 17 17 16 16 16 16 15 15 15 15 15 14 14 13 13 13 13 13
13 10 10 11 12 14 15 16 18 18 18 19 19 19 20 21 20 20 19 18 17 17 17 18 18 18 18 19 18 18 18 17 17 16 16 16 15 15 15 15 14 14 14 13 13 13 13 13 13
12 9 10 12 12 14 15 16 17 17 17 18 18 18 19 20 20 19 19 18 18 18 17 17 18 18 18 18 18 18 18 17 17 17 16 16 15 15 14 14 14 14 13 13 13 13 13 13 13
10 10 11 13 14 15 15 15 16 16 16 17 17 17 18 18 18 18 18 19 19 18 18 18 17 17 17 18 18 18 18 18 17 17 16 16 15 15 14 14 14 13 13 13 13 13 13 12 12
10 10 12 13 15 15 15 15 15 16 17 17 17 17 16 16 17 17 18 18 17 18 18 18 18 17 17 17 17 17 17 18 18 17 16 16 15 15 14 14 14 14 13 13 13 12 12 12 12
10 12 13 14 14 14 14 14 14 15 16 17 17 17 17 17 17 17 17 17 17 17 18 18 17 17 17 17 17 16 17 17 17 17 17 16 15 15 14 14 14 13 13 13 13 12 12 12 12
11 12 13 13 14 14 14 14 13 15 16 16 17 17 17 17 17 17 17 17 17 17 18 18 17 17 17 17 17 17 16 16 16 17 17 16 16 15 14 14 13 13 13 13 12 12 12 12 12
12 11 12 12 13 13 13 12 12 15 16 16 16 16 17 17 17 17 17 17 17 17 17 17 17 17 17 17 17 16 16 16 16 16 16 16 16 15 14 14 13 13 13 12 12 12 12 12 12
11 11 10 12 12 13 13 11 12 15 14 14 15 16 16 17 17 18 18 18 17 17 17 17 17 17 17 17 17 17 17 16 16 16 16 16 15 15 14 14 13 13 12 12 12 12 12 11 11
10 9 9 11 11 11 11 10 11 13 13 13 14 15 15 16 17 17 17 17 17 17 17 17 17 17 18 17 17 17 17 17 16 16 16 15 15 15 14 14 13 13 12 12 12 12 11 11 11
8 9 9 10 10 10 10 9 10 12 12 12 13 14 15 15 16 17 17 17 17 17 17 17 17 17 17 17 17 17 17 17 16 16 16 16 15 15 15 14 13 12 12 12 11 11 11 11 11
9 9 9 9 9 10 9 9 9 11 11 11 13 14 15 15 16 16 16 16 16 17 17 17 17 17 17 17 17 17 17 17 17 17 17 16 16 15 15 14 13 13 12 12 11 11 11 11 11
9 9 9 9 9 9 8 7 9 9 10 11 12 12 13 14 15 15 15 15 16 16 16 16 17 17 17 17 17 17 17 17 17 17 17 17 16 16 15 14 14 13 12 12 11 11 11 11 11
9 9 9 9 8 7 7 9 9 9 9 10 11 11 12 12 13 14 15 15 15 15 16 16 16 16 16 16 16 16 16 16 16 16 16 16 16 16 15 15 15 14 13 12 12 11 11 11 11
9 9 9 8 8 6 7 7 8 8 8 9 10 10 11 12 12 13 14 14 15 15 15 16 16 16 16 16 16 16 16 15 16 16 16 16 16 16 16 15 15 15 14 13 12 12 12 11 11
8 8 7 7 6 6 5 7 8 7 10 9 9 10 10 11 12 13 13 13 14 14 15 15 15 16 16 16 16 16 15 16 16 16 16 15 16 16 16 15 15 15 14 14 13 12 12 11 11
7 6 5 4 5 6 6 5 7 7 9 8 8 9 10 11 12 12 12 13 13 13 14 14 15 15 15 15 15 15 15 15 15 15 15 15 15 15 15 15 15 15 15 14 14 13 12 11 11
7 6 6 6 5 5 5 4 6 7 8 8 8 9 10 11 11 11 12 12 12 12 13 13 14 14 14 15 15 15 15 15 15 15 15 15 15 15 15 15 15 15 15 14 14 13 12 11 11
7 7 6 7 7 5 5 4 6 7 8 9 9 10 10 10 10 10 10 10 11 11 11 12 12 13 13 14 14 14 14 14 14 14 15 15 15 15 15 15 15 15 14 14 13 12 11 11 10
6 5 5 4 4 4 5 5 5 8 8 9 9 10 10 10 10 9 10 10 10 10 10 10 11 11 12 12 13 13 14 14 14 14 14 14 14 14 14 14 14 14 14 13 12 11 11 10 9
6 5 4 4 5 6 6 6 6 9 9 8 7 9 9 9 9 9 9 9 9 9 9 9 10 10 11 11 12 12 13 13 13 13 13 13 13 13 13 13 13 13 13 12 11 10 10 9 8
5 5 4 3 4 5 6 8 7 8 9 8 7 9 9 8 8 8 7 8 8 8 8 9 9 9 10 10 11 11 12 12 12 12 12 12 11 11 11 11 11 11 11 10 10 9 8 7 6
6 5 4 4 3 3 3 6 8 7 7 7 8 9 8 8 7 7 6 7 7 7 7 8 8 9 9 10 10 10 11 11 11 10 10 10 10 10 9 10 10 9 9 9 8 7 6 5 4
Wind_Speed
6 5 3 4 5 4 4 6 4 5 4 3 3 3 5 6 6 4 1 8 10 12 15 19 18 17 17 16 17 17 17 16 15 14 13 11 10 9 9 9 10 11 13 14 15 14 13 12 12
2 3 5 5 5 2 7 6 6 6 4 7 4 0 1 3 2 4 5 7 11 13 15 17 18 17 17 16 17 17 17 16 15 14 12 11 10 10 10 10 11 13 14 15 14 13 12 12 11
3 5 5 5 5 7 7 6 7 5 7 4 3 2 3 2 2 6 6 9 10 11 14 17 19 18 17 16 16 17 17 16 15 14 12 11 11 11 10 11 11 12 13 13 12 11 11 10 10
4 5 5 4 8 8 7 3 1 8 8 5 4 5 4 2 3 5 9 11 12 8 13 17 19 17 16 16 16 16 17 16 15 14 12 12 11 11 11 11 11 11 11 10 10 10 9 8 8
4 5 3 4 9 7 6 5 3 5 7 5 4 5 4 5 3 8 13 13 12 9 12 16 18 17 16 16 16 17 17 17 16 14 13 12 11 11 11 10 10 9 9 9 9 8 7 7 6
5 5 5 8 11 6 5 4 2 4 5 5 3 3 5 2 4 9 13 13 11 10 10 14 17 16 16 15 16 16 17 17 16 15 14 13 12 12 11 11 10 9 8 8 7 7 6 6 6
6 6 7 8 7 8 6 5 4 5 7 6 4 4 5 1 5 9 10 11 10 9 9 11 14 15 15 15 15 16 17 17 17 16 14 13 12 12 11 11 9 8 7 7 6 6 6 6 6
6 6 7 6 6 7 3 4 4 5 7 4 6 7 7 4 9 11 11 10 10 8 7 8 11 13 13 13 14 15 16 17 17 16 15 14 13 12 11 10 9 8 7 6 6 7 7 8 7
5 5 7 8 8 5 3 3 2 1 3 3 2 4 5 8 13 13 10 9 11 11 8 6 8 10 12 12 13 14 16 16 16 15 14 13 12 10 10 9 8 7 6 6 6 7 9 9 9
5 6 9 6 6 5 1 1 3 4 3 3 3 5 4 11 15 15 14 15 15 15 12 9 8 8 11 11 12 12 13 14 14 13 13 12 11 10 9 10 8 7 6 6 7 9 9 9 9
7 7 6 5 4 3 1 1 2 1 2 1 2 5 3 6 11 13 13 14 13 13 14 12 10 9 9 8 9 10 11 12 12 13 13 12 10 8 8 8 7 6 6 6 8 9 8 8 8
6 5 5 4 4 3 2 1 2 3 5 2 1 2 2 4 7 10 11 11 10 11 13 13 12 9 9 9 8 8 8 9 10 13 14 12 8 7 7 8 8 7 7 7 7 7 8 8 8
5 3 3 2 0 1 2 4 4 7 8 5 4 2 1 2 5 5 6 8 10 12 13 13 13 12 10 8 7 8 8 9 11 13 14 14 9 6 7 7 8 8 8 8 7 8 8 7 7
7 4 1 2 2 2 4 6 4 9 6 4 5 6 5 5 6 6 7 9 11 13 14 13 14 14 12 11 9 7 10 12 13 13 15 16 13 10 7 6 7 8 10 10 9 9 7 6 6
6 5 2 4 4 3 3 8 7 9 6 7 8 9 9 9 8 9 9 9 11 12 13 14 15 15 15 14 11 10 11 13 12 13 16 17 15 13 10 7 6 9 11 11 10 8 7 5 5
6 5 3 4 3 4 5 10 5 7 5 9 9 9 9 9 9 10 10 9 9 9 11 14 14 16 17 16 13 10 12 13 12 15 16 18 18 17 13 8 7 12 13 11 6 5 5 4 4
4 5 5 3 0 1 6 8 6 4 3 8 10 9 9 9 10 10 10 10 10 10 10 12 14 15 18 18 14 12 11 12 13 15 15 18 20 19 15 9 9 13 10 7 7 4 4 4 4
7 5 5 5 2 2 4 8 11 8 6 9 11 11 10 10 12 10 9 10 10 10 10 11 12 14 14 14 12 11 11 11 11 12 15 18 19 20 17 10 11 13 8 7 7 6 3 4 5
8 7 4 2 3 4 5 9 14 11 9 11 12 11 12 12 10 8 8 9 8 8 9 11 11 12 11 10 12 13 14 13 12 13 16 18 19 20 16 10 10 10 11 11 10 6 5 3 4
6 5 3 1 5 4 6 10 12 11 8 8 9 10 10 11 10 9 7 7 7 8 8 9 11 11 12 11 12 10 11 10 13 11 12 17 18 19 17 14 13 12 10 11 11 7 5 4 5
4 5 4 1 4 4 7 9 8 5 4 5 6 6 7 9 10 10 8 7 6 7 8 7 9 10 11 11 8 5 6 5 7 9 12 13 17 18 17 15 14 14 14 14 14 12 10 6 4
4 3 5 4 3 4 5 6 9 5 8 5 6 7 7 7 7 7 8 8 7 7 6 6 7 8 9 9 9 11 12 13 13 12 13 13 15 17 18 16 15 16 14 14 15 13 8 8 6
5 5 6 4 4 2 1 3 9 5 4 5 8 9 8 7 7 8 8 8 7 7 6 5 6 7 7 8 10 11 14 13 10 10 12 13 14 15 16 16 15 16 15 15 14 13 10 7 8
8 7 7 5 4 3 4 5 7 3 3 6 8 8 9 9 9 9 9 9 8 8 8 7 6 7 6 7 8 11 14 13 11 11 12 12 10 12 15 14 15 15 13 14 14 14 14 9 8
5 5 3 3 2 5 3 4 9 6 5 5 6 8 9 9 10 11 13 13 12 12 11 9 9 9 8 7 8 10 12 13 14 14 14 12 11 12 16 16 15 13 12 13 11 12 12 10 10
4 6 6 4 3 4 2 6 8 6 7 5 4 6 8 10 10 10 11 10 10 11 11 10 10 10 9 8 8 8 10 9 10 12 11 13 13 14 14 16 14 13 12 12 10 9 8 8 8
6 4 4 6 2 3 5 7 9 3 1 3 6 8 10 10 11 11 11 10 10 11 11 10 10 11 10 9 9 9 8 9 10 10 10 9 8 7 10 12 11 10 10 11 11 8 9 9 8
5 7 5 5 4 4 6 5 4 4 3 6 9 11 11 11 11 12 11 11 11 10 10 10 9 10 10 9 8 8 7 7 7 6 7 7 6 6 9 10 10 11 11 12 11 10 11 11 10
5 4 5 4 3 4 3 6 5 6 3 6 9 10 10 11 11 11 11 12 12 11 10 9 9 9 9 8 8 7 5 4 3 3 4 4 5 8 10 11 11 12 12 12 12 12 13 14 11
5 6 6 5 4 4 3 7 5 5 4 6 9 10 9 9 9 10 11 12 11 11 10 9 9 9 9 8 7 5 3 2 1 2 4 6 8 9 11 12 13 13 13 13 14 14 13 13 12
Wind_Direction
0 10 68 58 54 52 249 248 241 270 261 270 257 209 182 172 177 214 80 139 135 143 157 158 160 159 158 154 149 145 144 141 137 133 130 128 126 124 119 114 106 109 115 115 108 102 98 97 99
6 33 56 63 100 218 257 242 235 236 275 311 308 332 240 222 183 136 143 164 146 146 154 157 160 160 158 154 152 150 149 146 143 140 137 135 132 131 125 113 103 100 101 101 101 100 99 101 103
83 48 86 92 155 196 233 232 227 287 295 286 315 308 245 268 181 175 176 157 144 145 151 157 160 160 158 157 157 158 156 153 149 145 143 140 137 136 130 119 107 101 101 102 103 104 104 105 104
90 58 62 126 220 220 220 237 240 327 339 353 352 311 284 338 208 174 144 147 143 138 149 159 159 160 160 161 163 164 161 158 153 149 147 144 142 139 133 124 116 111 110 111 111 111 109 107 105
66 95 120 217 237 238 237 257 285 321 312 326 346 289 279 347 68 128 139 148 146 139 147 160 159 161 163 166 169 170 167 162 158 155 153 150 145 141 137 132 128 127 125 122 120 118 114 107 100
78 96 150 219 239 249 250 234 270 280 278 292 259 250 276 29 114 140 145 149 148 144 148 161 162 163 166 171 173 175 171 168 165 162 160 156 151 147 146 144 141 138 133 130 127 122 113 99 90
125 136 182 206 239 255 248 200 215 246 272 262 207 215 280 194 148 141 140 140 142 144 148 160 162 165 169 174 176 180 177 173 170 169 167 163 158 155 155 153 152 148 143 137 131 119 104 90 85
140 136 173 201 216 248 245 200 213 204 254 253 175 190 243 211 147 138 136 139 146 151 156 161 162 165 170 176 180 184 180 176 175 176 173 169 165 164 164 165 165 162 155 145 133 118 99 87 87
108 130 191 199 196 233 230 218 257 297 260 296 219 241 282 132 145 146 148 158 168 174 174 168 165 168 171 176 183 185 183 181 181 181 176 169 169 171 174 176 181 178 165 151 136 120 103 92 91
137 180 207 199 188 184 192 207 311 358 344 334 352 1 45 138 159 166 171 176 183 188 189 184 179 175 174 180 182 183 183 183 182 179 174 171 174 180 181 184 189 182 164 146 133 116 105 104 101
171 192 201 217 199 176 157 303 324 4 300 269 340 336 76 151 171 181 187 189 191 191 194 195 191 185 182 182 179 181 181 181 181 179 178 176 177 181 178 178 183 171 145 121 115 107 109 112 114
174 210 194 206 189 172 181 266 292 218 233 211 256 327 108 165 194 199 200 201 199 199 202 201 198 194 193 189 185 183 182 182 182 184 182 176 172 174 174 174 172 160 149 137 128 121 118 115 117
181 197 197 227 290 216 208 233 249 252 253 271 298 343 33 222 241 241 222 212 210 211 209 207 204 204 199 194 192 192 193 192 191 190 189 184 178 178 178 177 173 168 162 155 144 135 129 121 118
190 195 245 245 237 233 232 253 227 257 254 254 267 275 271 255 243 238 223 213 212 217 216 212 211 209 204 203 201 197 199 199 197 198 196 192 188 184 180 177 177 176 173 167 157 147 138 128 125
141 153 252 249 212 233 227 269 229 244 250 260 262 264 270 262 249 240 232 221 215 216 216 215 215 212 210 209 206 204 201 201 204 205 201 198 194 189 186 184 184 183 174 159 145 134 127 121 119
116 136 212 262 203 214 195 261 253 255 253 265 267 264 263 266 258 252 247 240 231 222 218 217 215 213 213 213 210 208 204 203 208 206 204 202 198 194 190 190 191 181 169 158 148 140 127 130 134
138 169 197 267 4 239 210 258 271 305 277 275 279 276 268 269 266 256 250 244 240 230 225 221 216 213 213 214 212 210 206 206 208 206 207 206 202 197 194 194 189 175 168 163 161 151 141 151 151
171 160 177 220 338 341 262 273 287 288 280 275 278 280 277 270 265 257 249 244 242 236 231 228 223 220 215 212 212 212 211 211 208 209 211 205 203 198 194 191 183 175 170 169 165 151 128 138 146
150 149 175 226 359 337 285 285 285 282 271 267 270 272 277 279 276 268 255 252 249 242 233 230 226 224 216 209 210 213 217 216 213 213 211 206 201 196 193 189 181 180 182 180 168 146 139 135 144
122 134 165 322 8 357 312 287 274 270 257 256 270 281 286 290 295 290 276 264 250 245 236 231 230 229 220 215 212 212 214 217 216 213 210 206 200 195 194 189 188 186 181 176 175 158 147 148 170
132 150 164 179 1 35 339 304 292 311 332 315 302 296 298 295 299 304 305 292 277 264 252 242 232 230 227 222 214 205 201 205 205 210 213 207 200 197 196 193 188 187 186 188 187 180 165 162 188
176 148 130 108 54 332 23 318 294 321 332 341 347 345 335 328 320 320 324 321 308 287 277 260 249 240 235 224 216 210 212 217 216 215 215 207 201 199 198 193 191 189 191 191 191 186 175 155 166
130 99 95 95 105 339 341 217 285 338 356 350 344 348 349 348 350 348 342 332 330 328 319 298 281 263 249 232 221 219 224 226 220 212 210 208 204 201 199 195 193 193 195 194 188 185 183 174 166
118 83 67 59 71 275 219 193 280 289 282 312 325 338 345 351 358 356 351 351 348 346 342 334 316 291 271 251 236 226 227 227 220 212 211 209 204 201 200 196 196 196 194 192 189 186 185 184 169
106 106 54 354 359 250 176 211 254 266 271 276 301 322 333 346 354 353 351 348 343 339 336 333 327 311 296 271 250 238 235 232 226 220 217 210 206 205 202 198 198 197 194 189 182 180 183 176 167
157 146 165 201 238 285 203 238 257 265 283 288 297 312 333 345 347 344 338 333 328 324 324 326 323 311 304 289 271 254 243 238 235 226 220 215 213 211 201 198 196 192 185 179 170 168 165 154 145
125 123 131 121 102 289 269 278 301 270 298 320 328 338 342 341 340 337 331 327 321 316 313 314 313 308 304 295 284 272 254 240 237 231 222 218 213 199 188 187 181 172 165 161 156 155 145 135 128
126 135 108 128 161 265 294 274 255 273 311 332 338 335 330 333 334 333 330 326 320 312 309 311 307 301 300 297 287 281 267 253 242 227 218 209 192 169 162 161 155 150 147 145 141 137 132 125 121
121 114 108 107 144 168 287 283 225 215 264 312 312 313 319 325 328 328 326 323 318 317 317 319 321 319 317 315 308 299 291 280 247 214 197 169 145 141 144 144 140 138 138 137 134 132 130 124 120
154 158 146 150 190 172 203 271 268 227 266 287 297 307 317 324 325 327 327 328 330 330 331 330 330 333 332 330 331 328 334 6 71 107 119 124 126 130 133 133 132 132 131 131 130 128 124 122 119
Height
1520 1521 1522 1524 1527 1538 1538 1529 1522 1518 1515 1512 1510 1509 1509 1510 1514 1516 1509 1508 1511 1514 1516 1519 1522 1525 1528 1531 1533 1535 1536 1538 1539 1539 1540 1540 1540 1540 1541 1542 1543 1544 1545 1546 1547 1548 1549 1549 1549
1518 1520 1523 1523 1533 1542 1537 1525 1520 1515 1513 1511 1509 1508 1508 1507 1507 1508 1507 1508 1512 1515 1517 1519 1523 1526 1528 1531 1533 1535 1536 1538 1539 1539 1540 1540 1540 1540 1541 1542 1544 1545 1546 1547 1548 1550 1550 1550 1550
1517 1519 1522 1525 1534 1537 1528 1518 1516 1513 1512 1510 1509 1508 1508 1507 1507 1508 1508 1510 1513 1515 1518 1520 1523 1526 1529 1531 1533 1535 1536 1538 1539 1540 1540 1540 1541 1541 1542 1543 1544 1545 1547 1549 1550 1551 1551 1552 1552
1515 1519 1521 1528 1529 1524 1519 1513 1513 1512 1510 1511 1511 1509 1508 1508 1508 1509 1510 1511 1513 1516 1518 1521 1524 1527 1529 1531 1533 1535 1536 1538 1539 1540 1541 1541 1542 1542 1543 1544 1545 1547 1548 1550 1551 1552 1552 1553 1553
1513 1516 1524 1528 1524 1517 1514 1512 1513 1512 1512 1511 1512 1510 1508 1508 1508 1510 1511 1513 1514 1516 1519 1522 1525 1527 1529 1531 1533 1535 1537 1538 1539 1540 1541 1542 1542 1543 1544 1545 1546 1548 1549 1551 1552 1553 1553 1554 1554
1511 1514 1527 1527 1519 1513 1511 1511 1512 1511 1511 1511 1512 1510 1508 1508 1509 1510 1512 1514 1515 1517 1520 1522 1525 1527 1530 1531 1533 1535 1537 1538 1539 1541 1542 1543 1543 1544 1545 1546 1547 1549 1550 1551 1552 1553 1554 1555 1555
1508 1514 1520 1519 1516 1513 1509 1509 1510 1509 1509 1510 1511 1510 1507 1508 1509 1510 1512 1514 1516 1518 1520 1522 1525 1527 1530 1532 1533 1535 1536 1538 1539 1541 1542 1543 1544 1545 1546 1547 1548 1550 1551 1552 1553 1554 1555 1555 1556
1505 1511 1516 1517 1515 1511 1507 1507 1507 1507 1507 1508 1509 1508 1507 1507 1508 1510 1512 1514 1516 1518 1520 1522 1525 1527 1529 1531 1533 1535 1536 1537 1539 1541 1542 1543 1545 1546 1547 1548 1549 1550 1552 1553 1554 1554 1555 1556 1556
1504 1512 1514 1512 1512 1508 1505 1506 1506 1505 1506 1506 1507 1507 1507 1507 1507 1509 1511 1513 1515 1517 1519 1521 1524 1526 1528 1530 1532 1534 1535 1537 1538 1540 1541 1543 1544 1546 1547 1548 1550 1551 1552 1553 1554 1554 1555 1556 1556
1502 1509 1507 1503 1504 1504 1504 1504 1505 1504 1504 1504 1505 1505 1505 1505 1506 1507 1508 1510 1513 1515 1517 1520 1523 1525 1527 1529 1531 1532 1534 1535 1537 1539 1540 1542 1544 1545 1547 1548 1549 1550 1552 1553 1553 1554 1555 1555 1556
1499 1502 1501 1500 1501 1502 1503 1504 1504 1504 1505 1505 1505 1505 1504 1505 1506 1507 1509 1510 1512 1514 1516 1519 1521 1523 1525 1527 1529 1531 1532 1534 1535 1537 1539 1541 1542 1544 1546 1547 1548 1549 1550 1552 1553 1553 1554 1555 1555
1497 1498 1498 1498 1500 1501 1502 1503 1503 1503 1504 1504 1505 1505 1505 1506 1507 1508 1509 1510 1512 1514 1516 1518 1520 1521 1523 1525 1527 1528 1530 1532 1533 1535 1537 1538 1540 1542 1544 1545 1547 1548 1549 1551 1552 1553 1553 1554 1554
1495 1495 1497 1498 1499 1499 1500 1501 1502 1500 1502 1503 1504 1505 1506 1507 1507 1508 1509 1510 1511 1512 1514 1516 1518 1519 1521 1522 1524 1525 1527 1529 1531 1533 1534 1536 1538 1539 1542 1543 1545 1546 1548 1549 1550 1551 1552 1553 1553
1492 1495 1496 1496 1497 1498 1499 1498 1500 1497 1499 1500 1501 1502 1504 1506 1507 1507 1508 1508 1509 1510 1512 1514 1515 1516 1518 1519 1521 1522 1525 1526 1529 1530 1531 1533 1535 1537 1539 1541 1542 1544 1545 1547 1548 1549 1550 1551 1551
1491 1494 1496 1495 1496 1496 1498 1497 1496 1495 1496 1497 1497 1499 1500 1502 1503 1504 1505 1506 1507 1508 1509 1511 1512 1513 1514 1516 1518 1519 1521 1523 1525 1526 1528 1529 1531 1533 1535 1537 1539 1541 1542 1544 1545 1546 1547 1548 1549
1491 1496 1499 1495 1494 1494 1500 1498 1493 1492 1493 1492 1493 1494 1495 1496 1498 1500 1501 1502 1503 1504 1505 1507 1508 1509 1510 1512 1513 1515 1517 1518 1520 1522 1524 1525 1527 1529 1531 1533 1535 1537 1539 1541 1542 1543 1544 1545 1546
1493 1499 1499 1496 1494 1494 1496 1495 1491 1490 1490 1489 1489 1489 1489 1490 1492 1494 1496 1497 1498 1499 1500 1501 1503 1504 1505 1506 1508 1510 1511 1513 1515 1517 1519 1520 1522 1524 1526 1528 1531 1533 1535 1537 1538 1540 1541 1542 1543
1496 1497 1498 1498 1495 1495 1495 1494 1489 1487 1488 1486 1485 1484 1484 1484 1486 1489 1490 1491 1492 1493 1494 1495 1496 1498 1499 1501 1502 1503 1505 1507 1509 1511 1513 1515 1517 1518 1521 1523 1526 1528 1530 1532 1534 1536 1538 1539 1540
1491 1495 1497 1497 1496 1496 1495 1494 1487 1482 1483 1482 1480 1479 1479 1479 1480 1482 1483 1484 1484 1485 1486 1488 1489 1491 1492 1493 1494 1495 1497 1499 1501 1503 1506 1509 1511 1513 1515 1517 1520 1522 1524 1526 1529 1531 1533 1535 1536
1491 1495 1497 1497 1497 1497 1497 1493 1483 1477 1477 1477 1476 1476 1475 1475 1474 1475 1476 1476 1476 1477 1478 1480 1481 1483 1485 1486 1487 1488 1490 1491 1494 1496 1499 1502 1504 1506 1508 1511 1513 1516 1518 1521 1523 1526 1528 1530 1532
1491 1495 1497 1498 1499 1500 1500 1490 1481 1476 1475 1475 1474 1474 1473 1472 1470 1470 1469 1469 1469 1470 1471 1473 1475 1476 1478 1479 1481 1481 1482 1483 1485 1487 1490 1493 1496 1499 1502 1504 1506 1509 1512 1514 1516 1519 1522 1524 1526
1492 1493 1496 1499 1503 1507 1507 1504 1484 1480 1478 1475 1474 1472 1471 1470 1469 1467 1466 1465 1465 1465 1465 1466 1468 1470 1471 1473 1473 1474 1474 1474 1476 1479 1482 1485 1488 1491 1494 1497 1499 1502 1504 1506 1509 1512 1514 1517 1519
1492 1494 1498 1502 1506 1510 1510 1509 1490 1483 1477 1476 1474 1472 1470 1469 1467 1466 1465 1464 1463 1462 1462 1462 1463 1464 1465 1466 1466 1466 1467 1468 1470 1472 1474 1476 1479 1482 1486 1489 1491 1494 1496 1499 1501 1504 1507 1509 1512
1492 1499 1505 1510 1512 1512 1509 1512 1495 1485 1479 1478 1475 1472 1470 1468 1466 1465 1463 1462 1461 1460 1459 1459 1459 1459 1459 1459 1460 1460 1460 1461 1462 1464 1465 1468 1470 1473 1476 1480 1483 1486 1488 1491 1493 1496 1500 1502 1505
1493 1501 1510 1510 1517 1513 1510 1512 1497 1482 1479 1477 1475 1472 1469 1468 1465 1463 1461 1459 1458 1457 1456 1455 1454 1454 1454 1454 1453 1453 1453 1454 1454 1456 1458 1459 1461 1464 1467 1471 1474 1477 1480 1483 1486 1489 1492 1495 1498
1494 1497 1507 1507 1507 1511 1510 1508 1490 1479 1476 1475 1474 1472 1469 1467 1465 1462 1460 1458 1455 1453 1452 1450 1449 1448 1448 1447 1447 1447 1447 1447 1447 1449 1450 1451 1453 1455 1459 1462 1465 1468 1472 1475 1478 1481 1485 1488 1490
1496 1501 1503 1513 1518 1517 1506 1500 1487 1475 1475 1474 1473 1470 1468 1466 1463 1461 1458 1455 1452 1450 1448 1446 1444 1442 1442 1441 1440 1440 1440 1440 1440 1441 1442 1444 1445 1448 1451 1453 1457 1460 1463 1466 1470 1473 1477 1480 1483
1494 1500 1508 1514 1513 1505 1500 1497 1489 1477 1475 1473 1471 1469 1466 1464 1461 1458 1455 1451 1448 1446 1443 1441 1439 1437 1435 1435 1434 1433 1433 1433 1434 1434 1435 1436 1438 1440 1443 1445 1449 1452 1455 1459 1463 1467 1470 1473 1476
1497 1501 1506 1514 1513 1513 1502 1489 1478 1476 1474 1474 1471 1468 1466 1463 1459 1456 1452 1448 1445 1441 1438 1436 1434 1432 1430 1429 1428 1427 1426 1427 1427 1427 1428 1429 1431 1433 1436 1439 1442 1445 1449 1453 1457 1461 1464 1467 1470
1493 1497 1504 1510 1515 1518 1519 1497 1472 1473 1472 1472 1469 1467 1464 1461 1457 1453 1449 1445 1441 1438 1435 1432 1430 1428 1426 1424 1422 1421 1421 1421 1421 1421 1422 1424 1425 1427 1430 1434 1437 1441 1444 1448 1452 1455 1458 1462 1465